Regional Weather Roundup
Issued by NWS

Home | Current Version | Previous Version | Text Only | Print | Product List | Glossary Off
Versions: 1 2 3 4 5 6 7 8 9 10 11 12 13 14 15 16 17 18 19 20 21 22 23 24 25 26 27 28 29 30 31 32 33 34 35 36 37 38 39 40 41 42 43 44 45 46 47 48 49 50

000
ASUS43 KLSX 201707
RWRMO

WEATHER SUMMARY FOR MISSOURI
NATIONAL WEATHER SERVICE SPRINGFIELD MO
1100 AM CST SAT DEC 20 2014

NOTE: "FAIR" INDICATES FEW OR NO CLOUDS BELOW 12,000 FEET WITH NO
       SIGNIFICANT WEATHER AND/OR OBSTRUCTIONS TO VISIBILITY.
       CURRENT SKY AND/OR WEATHER CONDITIONS ARE NOT AVAILABLE FOR
       CHILLICOTHE AND FARMINGTON.

MOZ001>031-035>038-043-044-053-054-201800-
...NORTHERN AND WESTERN MISSOURI...

CITY           SKY/WX    TMP DP  RH WIND       PRES   REMARKS
KANSAS CTY INT CLOUDY    37  33  85 S12       30.17S WCI  29
KANSAS C DTWN  PTSUNNY   40  34  79 S8        30.19F
LEE`S SUMMIT   CLOUDY    37  33  85 S9        30.19F
ST JOSEPH      CLOUDY    37  33  85 S9        30.17S
CHILLICOTHE      N/A     36  33  89 S7        30.22F
KIRKSVILLE     CLOUDY    36  36 100 S8        30.21F FOG     WCI  30

$$
MOZ066>068-077>081-088>096-101>105-201800-
...SOUTHWEST MISSOURI...

CITY           SKY/WX    TMP DP  RH WIND       PRES   REMARKS
SPRINGFIELD    CLOUDY    39  37  92 SW6       30.22F
JOPLIN         PTSUNNY   41  34  76 SW5       30.24F

$$
MOZ032>034-039>042-045>050-055>058-069>072-201800-
...CENTRAL MISSOURI...

CITY           SKY/WX    TMP DP  RH WIND       PRES   REMARKS
COLUMBIA       CLOUDY    39  36  89 S8        30.23S
JEFFERSON CITY CLOUDY    40  35  83 S6        30.25F
ROLLA          CLOUDY    38  34  85 S6        30.22F
SEDALIA        CLOUDY    38  35  89 SW9       30.23S
WHITEMAN AFB   CLOUDY    37  34  89 SW9       30.21F
WARRENSBURG    CLOUDY    36  32  87 SW9       30.21F WCI  29
OSAGE BEACH    CLOUDY    41  36  81 S5        30.23F

$$
MOZ051-052-059>065-201800-
...EAST CENTRAL MISSOURI...

CITY           SKY/WX    TMP DP  RH WIND       PRES   REMARKS
ST LOUIS INTL  CLOUDY    39  31  72 S3        30.28F HAZE
SPIRIT OF STL  CLOUDY    39  32  76 S3        30.27F
ST CHARLES     CLOUDY    38  32  79 S3        30.28F

$$
MOZ072>076-082>087-097>100-106>115-201800-
...SOUTH CENTRAL AND SOUTHEAST MISSOURI...

CITY           SKY/WX    TMP DP  RH WIND       PRES   REMARKS
CAPE GIRARDEAU CLOUDY    39  31  72 VRB3      30.30S
FARMINGTON     CLOUDY    37  32  81 SE3       30.28S
POPLAR BLUFF   CLOUDY    39  31  72 CALM      30.29F
WEST PLAINS    CLOUDY    38  34  85 S5        30.26S

$$



USA.gov is the U.S. government's official web portal to all federal, state and local government web resources and services.